Tracking 27122 objects as of 24-Mar-2023
HD Live streaming from Space Station
objects crossing your sky now

STARLINK-5031

Track STARLINK-5031 now!
10-day predictions
STARLINK-5031 is classified as:


NORAD ID: 53889
Int'l Code: 2022-119D
Perigee: 546.1 km
Apogee: 547.7 km
Inclination: 53.2 °
Period: 95.4 minutes
Semi major axis: 6917 km
RCS: Unknown
Launch date: September 24, 2022
Source: United States (US)
Launch site: AIR FORCE EASTERN TEST RANGE (AFETR)
Your satellite tracking list
Your tracking list is empty




NASA's NSSDC Master Catalog

Two Line Element Set (TLE):
1 53889U 22119D   23083.12978849  .00002439  00000-0  17125-3 0  9999
2 53889  53.2176 139.5829 0001183  95.9240 264.1887 15.08842171 27987
Source of the keplerian elements: AFSPC